Visibility
15.0 15.0 15.0 15.0 15.0 15.0 15.0 15.0 15.0 15.0 15.0 15.0 15.0 15.0 15.0 15.0 15.0 15.0 15.0 15.0 15.0 15.0 15.0 15.0 15.0 15.0 15.0 15.0 15.0 15.0 15.0 15.0 15.0 15.0 15.0 15.0 15.0 15.0 15.0 15.0 15.0 15.0 15.0 15.0
15.0 15.0 15.0 15.0 15.0 15.0 15.0 15.0 15.0 15.0 15.0 15.0 15.0 15.0 15.0 15.0 15.0 15.0 15.0 15.0 15.0 15.0 15.0 15.0 15.0 15.0 15.0 15.0 15.0 15.0 14.5 15.0 15.0 15.0 15.0 15.0 15.0 15.0 15.0 15.0 15.0 15.0 15.0 15.0
15.0 15.0 15.0 15.0 15.0 15.0 15.0 15.0 15.0 15.0 15.0 15.0 15.0 15.0 15.0 15.0 15.0 15.0 15.0 15.0 15.0 15.0 15.0 15.0 15.0 15.0 15.0 15.0 15.0 15.0 14.3 15.0 15.0 15.0 15.0 15.0 15.0 15.0 15.0 15.0 15.0 15.0 15.0 15.0
15.0 15.0 15.0 15.0 15.0 15.0 15.0 15.0 15.0 15.0 15.0 15.0 15.0 15.0 15.0 15.0 15.0 15.0 15.0 15.0 15.0 15.0 15.0 15.0 15.0 15.0 15.0 15.0 15.0 15.0 15.0 15.0 14.2 15.0 14.9 15.0 15.0 15.0 15.0 15.0 15.0 15.0 15.0 15.0
15.0 15.0 15.0 15.0 15.0 15.0 15.0 15.0 15.0 15.0 15.0 12.8 15.0 15.0 15.0 15.0 15.0 15.0 15.0 15.0 15.0 15.0 15.0 15.0 15.0 15.0 15.0 15.0 15.0 15.0 15.0 15.0 15.0 14.9 5.3 13.7 15.0 15.0 15.0 15.0 15.0 15.0 15.0 15.0
15.0 15.0 15.0 15.0 15.0 15.0 15.0 15.0 15.0 15.0 15.0 0.8 15.0 15.0 15.0 15.0 15.0 15.0 15.0 15.0 15.0 15.0 15.0 15.0 15.0 15.0 15.0 15.0 15.0 15.0 15.0 15.0 15.0 15.0 15.0 6.6 8.9 15.0 15.0 15.0 15.0 15.0 15.0 15.0
15.0 15.0 15.0 15.0 15.0 15.0 15.0 15.0 8.7 0.3 0.5 11.8 15.0 15.0 15.0 15.0 15.0 15.0 15.0 15.0 15.0 15.0 15.0 15.0 15.0 15.0 15.0 15.0 15.0 15.0 15.0 15.0 15.0 15.0 15.0 15.0 13.6 12.8 15.0 15.0 15.0 15.0 15.0 15.0
4.6 15.0 15.0 15.0 15.0 13.6 1.7 11.5 3.9 0.8 2.0 15.0 15.0 15.0 15.0 15.0 15.0 15.0 15.0 15.0 15.0 15.0 15.0 15.0 15.0 15.0 15.0 15.0 15.0 15.0 6.3 4.9 15.0 15.0 15.0 15.0 15.0 7.0 14.7 15.0 15.0 15.0 15.0 15.0
0.8 14.3 15.0 15.0 15.0 6.2 0.1 0.2 15.0 1.1 15.0 4.8 15.0 15.0 15.0 15.0 15.0 15.0 15.0 15.0 15.0 15.0 15.0 15.0 15.0 15.0 15.0 15.0 15.0 15.0 15.0 15.0 15.0 15.0 8.3 15.0 15.0 13.1 15.0 15.0 15.0 15.0 15.0 15.0
0.1 0.1 3.4 15.0 15.0 8.9 6.6 1.2 3.4 7.4 2.8 5.4 15.0 15.0 9.0 15.0 15.0 15.0 15.0 15.0 15.0 15.0 15.0 15.0 15.0 15.0 15.0 15.0 15.0 15.0 9.5 11.7 15.0 15.0 15.0 15.0 15.0 15.0 10.3 13.9 14.6 7.4 15.0 15.0
0.0 0.0 1.1 1.1 0.2 5.9 0.0 0.5 11.7 12.1 10.2 1.0 4.9 15.0 12.5 7.8 0.3 0.0 0.1 0.1 0.4 15.0 15.0 15.0 15.0 15.0 15.0 15.0 15.0 7.3 13.8 6.3 13.7 15.0 15.0 15.0 15.0 15.0 15.0 15.0 15.0 3.3 13.5 15.0
0.1 0.0 1.2 14.0 5.1 15.0 15.0 0.0 0.9 0.3 0.2 4.4 7.5 11.3 1.0 0.0 0.0 0.0 13.3 0.0 0.0 1.4 12.8 15.0 15.0 15.0 15.0 15.0 15.0 15.0 15.0 13.9 6.2 3.9 3.7 15.0 13.9 15.0 15.0 15.0 15.0 15.0 15.0 14.9
1.2 0.0 0.9 3.2 0.6 15.0 15.0 14.4 0.2 0.0 0.0 0.2 0.1 1.2 0.6 15.0 0.0 0.0 0.0 0.0 0.0 0.0 0.0 11.9 12.0 15.0 8.2 15.0 14.8 5.1 15.0 11.4 15.0 13.3 4.7 4.5 15.0 15.0 12.2 15.0 15.0 15.0 15.0 12.2
11.1 0.2 0.1 0.4 0.2 15.0 15.0 15.0 15.0 0.1 0.1 0.1 0.6 10.5 15.0 11.3 0.0 0.0 0.0 0.0 0.0 0.0 0.0 0.0 1.7 5.5 15.0 15.0 14.8 11.1 15.0 15.0 5.4 11.8 13.2 9.4 15.0 8.3 15.0 15.0 15.0 15.0 14.6 15.0
12.3 0.2 0.1 11.7 15.0 6.3 0.1 0.2 15.0 0.3 2.8 0.1 4.5 15.0 1.9 0.0 0.0 0.0 0.0 0.0 0.0 0.0 0.0 0.0 0.1 4.7 4.0 14.4 15.0 15.0 15.0 15.0 15.0 13.1 15.0 14.6 12.4 15.0 15.0 15.0 13.7 14.0 14.9 9.5
15.0 0.6 15.0 15.0 0.3 0.1 0.1 1.6 15.0 15.0 14.8 0.0 0.8 1.3 0.0 0.0 0.0 0.0 0.0 0.0 0.0 0.0 0.1 0.1 0.1 2.2 5.3 14.9 9.8 11.2 8.7 15.0 15.0 15.0 15.0 13.7 15.0 15.0 15.0 13.7 15.0 15.0 9.4 13.8
15.0 11.8 1.0 1.0 0.2 0.1 0.3 0.2 2.2 0.2 0.2 0.0 0.7 0.0 0.0 0.0 0.1 0.5 3.2 5.8 0.6 2.7 5.0 4.2 7.0 7.3 8.6 4.2 3.4 6.0 10.3 14.1 15.0 15.0 15.0 10.8 9.9 10.6 12.5 11.5 15.0 15.0 11.6 14.1
15.0 15.0 0.8 1.9 12.4 0.8 15.0 15.0 15.0 0.0 0.1 0.1 0.0 0.0 0.0 0.1 15.0 15.0 15.0 15.0 4.2 1.4 4.7 13.8 15.0 15.0 15.0 15.0 15.0 15.0 15.0 15.0 15.0 15.0 14.8 15.0 15.0 15.0 15.0 15.0 15.0 12.5 13.6 14.9
15.0 15.0 1.1 0.5 4.2 14.7 15.0 15.0 15.0 13.3 1.1 0.0 0.1 12.3 0.2 15.0 15.0 15.0 15.0 15.0 15.0 13.5 2.9 2.0 11.4 15.0 15.0 15.0 15.0 15.0 15.0 15.0 15.0 15.0 15.0 15.0 15.0 15.0 15.0 7.9 1.0 12.5 0.5 2.3
15.0 15.0 6.2 3.9 2.1 10.4 15.0 15.0 15.0 15.0 15.0 15.0 15.0 15.0 15.0 15.0 15.0 15.0 15.0 15.0 15.0 15.0 15.0 15.0 15.0 15.0 14.7 15.0 15.0 15.0 15.0 15.0 15.0 15.0 15.0 15.0 15.0 15.0 8.4 1.1 0.2 1.7 0.4 0.2
15.0 13.7 11.8 15.0 10.8 15.0 15.0 15.0 15.0 15.0 15.0 15.0 15.0 15.0 15.0 15.0 15.0 15.0 15.0 15.0 15.0 15.0 15.0 15.0 15.0 15.0 15.0 15.0 15.0 15.0 15.0 14.5 15.0 15.0 15.0 15.0 15.0 15.0 14.7 5.0 14.9 1.0 0.2 0.3
15.0 12.0 6.7 8.3 3.7 3.0 15.0 15.0 15.0 15.0 15.0 15.0 15.0 15.0 15.0 15.0 15.0 15.0 15.0 15.0 15.0 15.0 15.0 15.0 15.0 15.0 15.0 15.0 15.0 15.0 15.0 15.0 15.0 15.0 15.0 15.0 15.0 15.0 15.0 15.0 15.0 15.0 8.2 0.2
15.0 15.0 15.0 15.0 15.0 15.0 15.0 15.0 15.0 15.0 15.0 15.0 15.0 15.0 15.0 15.0 15.0 15.0 15.0 15.0 15.0 15.0 15.0 15.0 15.0 15.0 15.0 15.0 15.0 15.0 13.6 15.0 15.0 15.0 15.0 15.0 15.0 15.0 15.0 15.0 15.0 15.0 15.0 0.2
15.0 15.0 15.0 15.0 15.0 15.0 15.0 15.0 15.0 15.0 15.0 15.0 15.0 15.0 15.0 15.0 15.0 15.0 15.0 15.0 15.0 15.0 15.0 15.0 12.5 9.2 10.1 15.0 15.0 6.6 14.5 15.0 15.0 15.0 15.0 15.0 15.0 15.0 15.0 15.0 15.0 15.0 9.2 0.1
15.0 15.0 15.0 15.0 15.0 15.0 15.0 15.0 15.0 15.0 15.0 15.0 15.0 15.0 15.0 15.0 15.0 15.0 15.0 15.0 15.0 15.0 15.0 13.2 13.7 9.6 5.1 8.6 15.0 15.0 13.7 15.0 15.0 15.0 15.0 15.0 15.0 15.0 15.0 15.0 15.0 15.0 15.0 11.0
15.0 15.0 15.0 15.0 15.0 15.0 15.0 15.0 15.0 15.0 15.0 15.0 15.0 15.0 15.0 15.0 15.0 15.0 15.0 15.0 15.0 15.0 15.0 14.7 9.8 4.9 5.0 15.0 15.0 15.0 13.2 7.7 6.3 4.5 15.0 15.0 15.0 15.0 15.0 15.0 15.0 15.0 15.0 15.0